Location: Unspecified
(47.9110°N, 14.3980°E)
Time: 06:08:11
(UTC+00:00)

Cosmos 1864 Rocket - Pass Details

Date: 06 August 2020
Orbit: 952 x 997 km, 82.9° (Epoch: 23 September)

Event Time Altitude Azimuth Distance (km) Brightness Sun altitude
Exits shadow 22:03:42 53° 149° (SSE) 1,173 4.5 -24.1°
Maximum altitude 22:05:01 67° 94° (E) 1,045 4.5 -24.2°
Drops below altitude 10° 22:11:12 10° 14° (NNE) 2,731 7.6 -24.5°
Sets 22:13:45 0° 12° (NNE) 3,689 8.6 -24.6°
